ECHOSTAR 19

Last updated on Sat May 17 2025 00:02:45 GMT+0000 (Coordinated Universal Time)

1 41893U 16079A 25136.54072662 -.00000125 00000+0 00000+0 0 9994 2 41893 0.0171 310.1236 0001475 112.4585 269.4950 1.00270730 30722
UTC large
Height (km)
Speed (km/s)
/
Latitude / Longitude
Inclination (degrees)
Orbital Period (minutes)
Azimuth
Elevation
Range (km)
Doppler Factor

Next 0 passes for location: London (51.5072 / 0.1276)

Sorry there are no passes over London.